GW4207 Weather Reports


time (UTC)temp
C
wind
direction
speed
KPH
gust
KPH
rain 1hr
cm
rain 24hr
cm
rain mn
cm
humidity
%
barometer
mb
20260504160243 20 285 1.6 8.0 0.00 0.00 0.00 63 1004.6
20260504150741 18 323 1.6 8.0 0.00 0.00 0.00 65 1004.8
20260504150230 17 103 0.0 8.0 0.00 0.00 0.00 65 1004.8
20260504141219 15 117 0.0 6.4 0.00 0.00 0.00 68 1004.8
20260504140717 14 72 0.0 4.8 0.00 0.00 0.00 68 1005.2
20260504140214 14 83 0.0 4.8 0.00 0.00 0.00 68 1005.1
20260504130708 11 105 4.8 8.0 0.00 0.00 0.00 71 1006.0
20260504130206 11 149 0.0 8.0 0.00 0.00 0.00 71 1005.9
20260504120157 9 137 0.0 6.4 0.00 0.00 0.00 72 1006.1
20260504110701 7 87 0.0 4.8 0.00 0.00 0.00 72 1006.0
20260504110154 7 342 1.6 4.8 0.00 0.00 0.00 71 1005.7
20260504100149 8 62 0.0 4.8 0.00 0.00 0.00 70 1005.7
20260504081652 8 89 0.0 8.0 0.00 0.00 0.00 68 1006.2
20260504081143 8 79 1.6 6.4 0.00 0.00 0.00 68 1006.3
20260504080645 8 110 0.0 6.4 0.00 0.00 0.00 68 1006.4
20260504080144 8 101 0.0 4.8 0.00 0.00 0.00 68 1006.4
20260504070140 9 62 1.6 8.0 0.00 0.00 0.00 66 1007.1
20260504050636 10 88 1.6 4.8 0.00 0.00 0.00 64 1008.6
20260504050137 10 97 1.6 6.4 0.00 0.00 0.00 64 1008.5
20260504045635 10 135 0.0 6.4 0.00 0.00 0.00 64 1008.5
20260504045133 10 127 1.6 4.8 0.00 0.00 0.00 63 1008.6
20260504044634 10 116 1.6 12.9 0.00 0.00 0.00 63 1008.5
20260504044623 10 103 0.0 12.9 0.00 0.00 0.00 63 1008.5
20260504043645 10 124 6.4 12.9 0.00 0.00 0.00 63 1008.6
20260504043137 10 93 3.2 4.8 0.00 0.00 0.00 63 1008.9
20260504042854 10 115 0.0 6.4 0.00 0.00 0.00 63 1008.9
20260504042359 10 117 1.6 6.4 0.00 0.00 0.00 63 1008.6
20260504041633 10 125 3.2 8.0 0.00 0.00 0.00 63 1008.8
20260504041129 10 37 0.0 8.0 0.00 0.00 0.00 63 1008.8
20260504040631 10 112 3.2 8.0 0.00 0.00 0.00 63 1009.2
20260504040137 10 89 0.0 8.0 0.00 0.00 0.00 63 1008.8
20260504035635 10 70 0.0 6.4 0.00 0.00 0.00 63 1008.9
20260504035129 10 68 0.0 6.4 0.00 0.00 0.00 63 1009.2
20260504034631 10 94 0.0 8.0 0.00 0.00 0.00 63 1009.3
20260504034128 10 116 0.0 8.0 0.00 0.00 0.00 63 1009.3
20260504033629 10 111 0.0 8.0 0.00 0.00 0.00 63 1009.2
20260504033128 10 54 0.0 8.0 0.00 0.00 0.00 63 1009.4
20260504032634 10 72 3.2 6.4 0.00 0.00 0.00 63 1009.6
20260504032128 10 16 1.6 8.0 0.00 0.00 0.00 63 1009.4
20260504031629 10 84 1.6 8.0 0.00 0.00 0.00 63 1009.3
20260504031127 10 122 3.2 6.4 0.00 0.00 0.00 63 1009.4
20260504030629 10 125 1.6 4.8 0.00 0.00 0.00 63 1009.5
20260504030127 10 269 0.0 4.8 0.00 0.00 0.00 63 1009.9
20260504025638 10 99 1.6 4.8 0.00 0.00 0.00 63 1009.8
20260504025126 10 133 3.2 6.4 0.00 0.00 0.00 63 1009.7
20260504024628 10 77 1.6 9.7 0.00 0.00 0.00 63 1009.5
20260504024126 10 134 0.0 14.5 0.00 0.00 0.00 63 1010.0
20260504023626 10 172 0.0 14.5 0.00 0.00 0.00 63 1009.8
20260504023126 10 131 12.9 14.5 0.00 0.00 0.00 63 1009.9
20260504022635 10 121 0.0 6.4 0.00 0.00 0.00 63 1009.6
20260504022125 10 117 0.0 8.0 0.00 0.00 0.00 63 1009.7
20260504021627 10 66 0.0 8.0 0.00 0.00 0.00 63 1009.7
20260504021121 10 74 0.0 8.0 0.00 0.00 0.00 64 1010.1
20260504020625 10 108 0.0 6.4 0.00 0.00 0.00 63 1009.8
20260504020125 10 116 0.0 8.0 0.00 0.00 0.00 63 1010.1
20260504015634 10 132 3.2 8.0 0.00 0.00 0.00 63 1010.0
20260504015123 10 109 0.0 6.4 0.00 0.00 0.00 63 1009.9
20260504014625 10 102 1.6 6.4 0.00 0.00 0.00 63 1009.9
20260504014123 10 108 0.0 4.8 0.00 0.00 0.00 63 1010.0
20260504013625 10 98 0.0 8.0 0.00 0.00 0.00 63 1010.1
20260504013124 10 122 1.6 8.0 0.00 0.00 0.00 63 1009.9
20260504012623 10 141 1.6 6.4 0.00 0.00 0.00 63 1009.9
20260504012126 10 111 1.6 3.2 0.00 0.00 0.00 62 1009.9
20260504011623 10 99 1.6 4.8 0.00 0.00 0.00 62 1010.1
20260504011122 10 73 3.2 4.8 0.00 0.00 0.00 62 1010.0
20260504010623 11 269 0.0 3.2 0.00 0.00 0.00 62 1009.9
20260504010340 11 66 0.0 6.4 0.00 0.00 0.00 62 1010.1
20260504005849 11 26 3.2 6.4 0.00 0.00 0.00 61 1010.2
20260504005130 11 62 0.0 4.8 0.00 0.00 0.00 61 1010.2
20260504004623 11 139 0.0 6.4 0.00 0.00 0.00 61 1010.1
20260504004119 11 157 0.0 6.4 0.00 0.00 0.00 61 1010.3
20260504003621 11 122 4.8 4.8 0.00 0.00 0.00 61 1010.2
20260504003120 11 105 0.0 6.4 0.00 0.00 0.00 60 1010.2
20260504002620 11 117 0.0 6.4 0.00 0.00 0.00 60 1010.2
20260504002131 11 119 3.2 8.0 0.00 0.00 0.00 60 1010.3
20260504001624 11 66 0.0 8.0 0.00 0.00 0.00 59 1010.1
20260504001119 11 119 1.6 6.4 0.00 0.00 0.00 59 1010.4
20260504000619 11 160 0.0 6.4 0.00 0.00 0.00 59 1010.3
20260504000118 12 109 1.6 6.4 0.00 0.00 0.00 59 1010.5
20260503235619 12 92 1.6 9.7 0.00 0.00 0.00 59 1010.5
20260503235117 12 284 3.2 9.7 0.00 0.00 0.00 59 1010.3
20260503234629 12 131 3.2 9.7 0.00 0.00 0.00 58 1010.4
20260503234116 12 118 0.0 6.4 0.00 0.00 0.00 58 1010.4
20260503233618 12 116 6.4 6.4 0.00 0.00 0.00 58 1010.8
20260503233115 12 67 1.6 8.0 0.00 0.00 0.00 58 1010.5
20260503232617 12 51 1.6 8.0 0.00 0.00 0.00 58 1010.7
20260503232115 12 119 3.2 8.0 0.00 0.00 0.00 57 1010.9
20260503231616 12 314 3.2 8.0 0.00 0.00 0.00 57 1011.1
20260503231123 12 136 0.0 6.4 0.00 0.00 0.00 56 1010.8
20260503230840 12 123 3.2 11.3 0.00 0.00 0.00 55 1011.1
20260503230114 12 28 3.2 11.3 0.00 0.00 0.00 55 1011.0
20260503225614 12 66 1.6 11.3 0.00 0.00 0.00 54 1011.0
20260503225113 13 310 3.2 11.3 0.00 0.00 0.00 54 1011.0
20260503224614 13 356 1.6 11.3 0.00 0.00 0.00 53 1011.2
20260503224112 13 11 0.0 11.3 0.00 0.00 0.00 53 1010.9
20260503223837 14 111 6.4 14.5 0.00 0.00 0.00 53 1010.7
20260503223113 14 338 1.6 14.5 0.00 0.00 0.00 51 1010.9
20260503222613 15 313 0.0 11.3 0.00 0.00 0.00 51 1010.8
20260503222327 15 226 3.2 11.3 0.00 0.00 0.00 49 1010.6
20260503221613 16 306 3.2 8.0 0.00 0.00 0.00 49 1010.8
20260503221111 16 339 3.2 8.0 0.00 0.00 0.00 49 1010.4
20260503220613 16 150 1.6 11.3 0.00 0.00 0.00 49 1010.3
20260503220116 16 134 4.8 11.3 0.00 0.00 0.00 48 1010.3
20260503215612 16 291 0.0 11.3 0.00 0.00 0.00 49 1010.3
20260503215110 16 6 0.0 8.0 0.00 0.00 0.00 48 1010.4
20260503214612 17 274 4.8 8.0 0.00 0.00 0.00 47 1010.8
20260503214342 17 11 1.6 9.7 0.00 0.00 0.00 47 1010.2
20260503213611 16 342 0.0 9.7 0.00 0.00 0.00 48 1010.4
20260503213115 16 308 3.2 8.0 0.00 0.00 0.00 48 1010.2
20260503212611 16 320 6.4 9.7 0.00 0.00 0.00 49 1010.5
20260503212108 16 141 3.2 9.7 0.00 0.00 0.00 48 1010.5
20260503211611 16 278 3.2 12.9 0.00 0.00 0.00 47 1010.4
20260503211109 17 259 4.8 12.9 0.00 0.00 0.00 47 1010.4
20260503210610 17 126 3.2 12.9 0.00 0.00 0.00 46 1010.5
20260503210118 17 65 6.4 9.7 0.00 0.00 0.00 46 1010.3
20260503205611 17 107 0.0 9.7 0.00 0.00 0.00 46 1010.3
20260503205107 17 164 3.2 11.3 0.00 0.00 0.00 46 1010.5
20260503204609 17 316 3.2 11.3 0.00 0.00 0.00 45 1010.4
20260503204108 17 337 3.2 11.3 0.00 0.00 0.00 46 1010.5
20260503203608 17 103 3.2 20.9 0.00 0.00 0.00 45 1010.8
20260503203107 17 155 4.8 20.9 0.00 0.00 0.00 46 1010.8
20260503202614 17 163 1.6 9.7 0.00 0.00 0.00 48 1010.4
20260503202106 17 245 4.8 9.7 0.00 0.00 0.00 48 1010.7
20260503201608 17 234 1.6 9.7 0.00 0.00 0.00 47 1010.8
20260503201105 17 289 3.2 9.7 0.00 0.00 0.00 47 1010.7
20260503200606 17 286 3.2 8.0 0.00 0.00 0.00 47 1011.1
20260503200339 17 76 3.2 8.0 0.00 0.00 0.00 46 1010.9
20260503195618 17 259 1.6 8.0 0.00 0.00 0.00 47 1011.4
20260503195110 17 143 8.0 11.3 0.00 0.00 0.00 47 1010.9
20260503194604 17 356 4.8 11.3 0.00 0.00 0.00 45 1011.0
20260503194103 17 56 3.2 9.7 0.00 0.00 0.00 47 1011.3
20260503193927 17 131 3.2 9.7 0.00 0.00 0.00 48 1010.9
20260503192604 17 248 1.6 11.3 0.00 0.00 0.00 47 1011.3
20260503192117 17 195 0.0 12.9 0.00 0.00 0.00 48 1011.6
20260503191603 17 179 1.6 12.9 0.00 0.00 0.00 47 1011.4
20260503191101 17 275 3.2 11.3 0.00 0.00 0.00 46 1011.3
20260503190603 17 251 3.2 9.7 0.00 0.00 0.00 46 1011.7
20260503185601 17 283 8.0 9.7 0.00 0.00 0.00 46 1011.9
20260503185319 17 327 0.0 9.7 0.00 0.00 0.00 49 1011.8
20260503184612 17 53 0.0 9.7 0.00 0.00 0.00 49 1011.9
20260503184059 17 274 4.8 9.7 0.00 0.00 0.00 47 1011.8
20260503183600 17 190 1.6 9.7 0.00 0.00 0.00 49 1012.2
20260503183101 17 290 3.2 9.7 0.00 0.00 0.00 49 1012.1
20260503182600 17 116 1.6 9.7 0.00 0.00 0.00 50 1012.2
20260503182058 16 295 4.8 9.7 0.00 0.00 0.00 49 1012.1
20260503181559 16 334 3.2 11.3 0.00 0.00 0.00 52 1012.3
20260503181106 16 96 4.8 11.3 0.00 0.00 0.00 52 1012.2
20260503180557 16 107 1.6 11.3 0.00 0.00 0.00 52 1012.5
20260503180058 16 218 3.2 11.3 0.00 0.00 0.00 49 1012.7
20260503175558 16 314 0.0 8.0 0.00 0.00 0.00 50 1012.6
20260503175055 16 341 6.4 8.0 0.00 0.00 0.00 50 1012.7
20260503174558 16 113 4.8 0.0 0.00 0.00 0.00 50 1012.9
20260503173538 16 311 3.2 9.7 0.00 0.00 0.00 50 1013.1
20260503173040 16 307 3.2 14.5 0.00 0.00 0.00 50 1012.9
20260503172545 16 295 1.6 14.5 0.00 0.00 0.00 50 1013.0
20260503172045 16 189 3.2 14.5 0.00 0.00 0.00 51 1012.9
20260503171537 15 143 1.6 9.7 0.00 0.00 0.00 53 1013.1
20260503171037 15 148 8.0 9.7 0.00 0.00 0.00 52 1013.2
20260503170531 15 261 4.8 9.7 0.00 0.00 0.00 53 1013.4